Meteo orario Goiás

Oggi, 20 Aprile, Martedi

Tempo Temperatura Precipitazioni Vento Pressione Umidità
00:00 +20°C° 0 mm 0 m/s 716 mm Hg 85%
01:00 +22°C° 0 mm 1 m/s 715 mm Hg 87%
02:00 +21°C° 0 mm 1 m/s 715 mm Hg 88%
03:00 +21°C° 0 mm 1 m/s 715 mm Hg 90%
04:00 +21°C° 0 mm 1 m/s 715 mm Hg 90%
05:00 +20°C° 0 mm 1 m/s 715 mm Hg 91%
06:00 +20°C° 0 mm 1 m/s 715 mm Hg 91%
07:00 +22°C° 0 mm 1 m/s 716 mm Hg 85%
08:00 +24°C° 0 mm 1 m/s 716 mm Hg 79%
09:00 +25°C° 0 mm 1 m/s 717 mm Hg 74%
10:00 +27°C° 0 mm 1 m/s 717 mm Hg 66%
11:00 +29°C° 0 mm 1 m/s 717 mm Hg 59%
12:00 +30°C° 0 mm 1 m/s 717 mm Hg 52%
13:00 +30°C° 0 mm 1 m/s 716 mm Hg 50%
14:00 +31°C° 0 mm 1 m/s 716 mm Hg 49%
15:00 +31°C° 0 mm 1 m/s 715 mm Hg 47%
16:00 +29°C° 0 mm 1 m/s 715 mm Hg 55%
17:00 +27°C° 0 mm 1 m/s 715 mm Hg 63%
18:00 +25°C° 0 mm 1 m/s 714 mm Hg 71%
19:00 +25°C° 0 mm 1 m/s 715 mm Hg 70%
20:00 +24°C° 0 mm 1 m/s 715 mm Hg 69%
21:00 +23°C° 0 mm 1 m/s 715 mm Hg 68%
22:00 +23°C° 0 mm 1 m/s 715 mm Hg 68%
23:00 +22°C° 0 mm 1 m/s 715 mm Hg 68%

Domani, 21 Aprile, Mercoledi

Tempo Temperatura Precipitazioni Vento Pressione Umidità
00:00 +22°C° 0 mm 1 m/s 715 mm Hg 68%
01:00 +21°C° 0 mm 1 m/s 715 mm Hg 69%
02:00 +21°C° 0 mm 1 m/s 715 mm Hg 70%
03:00 +20°C° 0 mm 1 m/s 714 mm Hg 71%
04:00 +20°C° 0 mm 1 m/s 715 mm Hg 71%
05:00 +20°C° 0 mm 1 m/s 715 mm Hg 71%
06:00 +19°C° 0 mm 1 m/s 715 mm Hg 70%
07:00 +21°C° 0 mm 1 m/s 716 mm Hg 67%
08:00 +23°C° 0 mm 1 m/s 716 mm Hg 63%
09:00 +25°C° 0 mm 1 m/s 717 mm Hg 59%
10:00 +27°C° 0 mm 1 m/s 717 mm Hg 55%
11:00 +29°C° 0 mm 1 m/s 717 mm Hg 50%
12:00 +30°C° 0 mm 1 m/s 717 mm Hg 45%
13:00 +31°C° 0 mm 1 m/s 716 mm Hg 44%
14:00 +31°C° 0 mm 1 m/s 715 mm Hg 42%
15:00 +31°C° 0 mm 2 m/s 714 mm Hg 41%
16:00 +29°C° 0 mm 2 m/s 714 mm Hg 50%
17:00 +27°C° 0 mm 2 m/s 714 mm Hg 59%
18:00 +25°C° 0 mm 1 m/s 714 mm Hg 68%
19:00 +24°C° 0 mm 1 m/s 715 mm Hg 66%
20:00 +23°C° 0 mm 1 m/s 715 mm Hg 65%
21:00 +22°C° 0 mm 1 m/s 716 mm Hg 63%
22:00 +22°C° 0 mm 1 m/s 716 mm Hg 63%
23:00 +22°C° 0 mm 1 m/s 716 mm Hg 63%

Dopodomani, 22 Aprile, Giovedi

Tempo Temperatura Precipitazioni Vento Pressione Umidità
00:00 +21°C° 0 mm 1 m/s 716 mm Hg 62%
01:00 +21°C° 0 mm 1 m/s 716 mm Hg 64%
02:00 +21°C° 0 mm 1 m/s 715 mm Hg 65%
03:00 +20°C° 0 mm 1 m/s 715 mm Hg 66%
04:00 +20°C° 0 mm 1 m/s 715 mm Hg 67%
05:00 +19°C° 0 mm 1 m/s 715 mm Hg 69%
06:00 +19°C° 0 mm 1 m/s 715 mm Hg 70%
07:00 +21°C° 0 mm 1 m/s 716 mm Hg 66%
08:00 +23°C° 0 mm 1 m/s 717 mm Hg 61%
09:00 +25°C° 0 mm 1 m/s 717 mm Hg 57%
10:00 +27°C° 0 mm 1 m/s 717 mm Hg 52%
11:00 +29°C° 0 mm 1 m/s 717 mm Hg 46%
12:00 +30°C° 0 mm 1 m/s 717 mm Hg 41%
13:00 +30°C° 0 mm 1 m/s 716 mm Hg 40%
14:00 +31°C° 0 mm 2 m/s 716 mm Hg 38%
15:00 +31°C° 0 mm 2 m/s 715 mm Hg 37%
16:00 +29°C° 0 mm 2 m/s 715 mm Hg 46%
17:00 +27°C° 0 mm 1 m/s 715 mm Hg 55%
18:00 +24°C° 0 mm 1 m/s 715 mm Hg 64%
19:00 +24°C° 0 mm 1 m/s 715 mm Hg 64%
20:00 +23°C° 0 mm 1 m/s 715 mm Hg 63%
21:00 +22°C° 0 mm 1 m/s 715 mm Hg 62%
22:00 +21°C° 0 mm 1 m/s 716 mm Hg 61%
23:00 +21°C° 0 mm 1 m/s 716 mm Hg 61%

23 Aprile, Venerdi

Tempo Temperatura Precipitazioni Vento Pressione Umidità
00:00 +21°C° 0 mm 1 m/s 716 mm Hg 60%
01:00 +20°C° 0 mm 1 m/s 716 mm Hg 60%
02:00 +20°C° 0 mm 1 m/s 715 mm Hg 60%
03:00 +20°C° 0 mm 1 m/s 715 mm Hg 60%
04:00 +19°C° 0 mm 1 m/s 715 mm Hg 61%
05:00 +19°C° 0 mm 1 m/s 715 mm Hg 62%
06:00 +19°C° 0 mm 1 m/s 716 mm Hg 64%
07:00 +21°C° 0 mm 1 m/s 716 mm Hg 61%
08:00 +23°C° 0 mm 1 m/s 717 mm Hg 59%
09:00 +25°C° 0 mm 1 m/s 717 mm Hg 56%
10:00 +27°C° 0 mm 1 m/s 717 mm Hg 51%
11:00 +29°C° 0 mm 1 m/s 717 mm Hg 46%
12:00 +31°C° 0 mm 1 m/s 717 mm Hg 41%
13:00 +31°C° 0 mm 1 m/s 716 mm Hg 40%
14:00 +31°C° 0 mm 1 m/s 716 mm Hg 38%
15:00 +31°C° 0 mm 1 m/s 715 mm Hg 37%
16:00 +29°C° 0 mm 1 m/s 715 mm Hg 45%
17:00 +27°C° 0 mm 1 m/s 714 mm Hg 53%
18:00 +25°C° 0 mm 1 m/s 714 mm Hg 61%
19:00 +24°C° 0 mm 1 m/s 714 mm Hg 61%
20:00 +23°C° 0 mm 1 m/s 715 mm Hg 60%
21:00 +22°C° 0 mm 1 m/s 715 mm Hg 60%
22:00 +22°C° 0 mm 1 m/s 715 mm Hg 60%
23:00 +22°C° 0 mm 1 m/s 715 mm Hg 61%

24 Aprile, Sabato

Tempo Temperatura Precipitazioni Vento Pressione Umidità
00:00 +21°C° 0 mm 1 m/s 715 mm Hg 62%
01:00 +21°C° 0 mm 1 m/s 715 mm Hg 63%
02:00 +20°C° 0 mm 1 m/s 715 mm Hg 65%
03:00 +20°C° 0 mm 1 m/s 715 mm Hg 66%
04:00 +20°C° 0 mm 1 m/s 715 mm Hg 67%
05:00 +20°C° 0 mm 1 m/s 715 mm Hg 68%
06:00 +19°C° 0 mm 1 m/s 715 mm Hg 69%
07:00 +22°C° 0 mm 1 m/s 716 mm Hg 66%
08:00 +24°C° 0 mm 1 m/s 716 mm Hg 63%
09:00 +26°C° 0 mm 1 m/s 717 mm Hg 59%
10:00 +27°C° 0 mm 1 m/s 717 mm Hg 55%
11:00 +29°C° 0 mm 1 m/s 717 mm Hg 50%
12:00 +31°C° 0 mm 1 m/s 717 mm Hg 46%
13:00 +31°C° 0 mm 2 m/s 716 mm Hg 43%
14:00 +31°C° 0 mm 2 m/s 715 mm Hg 41%
15:00 +32°C° 0 mm 2 m/s 715 mm Hg 39%
16:00 +29°C° 0 mm 1 m/s 714 mm Hg 47%
17:00 +27°C° 0 mm 1 m/s 714 mm Hg 55%
18:00 +23°C° 0 mm 0 m/s 714 mm Hg 63%
19:00 +24°C° 0 mm 1 m/s 714 mm Hg 63%
20:00 +23°C° 0 mm 1 m/s 714 mm Hg 63%
21:00 +22°C° 0 mm 1 m/s 715 mm Hg 62%
22:00 +22°C° 0 mm 1 m/s 715 mm Hg 62%
23:00 +22°C° 0 mm 1 m/s 715 mm Hg 62%

25 Aprile, Domenica

Tempo Temperatura Precipitazioni Vento Pressione Umidità
00:00 +22°C° 0 mm 1 m/s 716 mm Hg 63%
01:00 +22°C° 0 mm 1 m/s 715 mm Hg 63%
02:00 +19°C° 0 mm 0 m/s 715 mm Hg 63%
03:00 +19°C° 0 mm 0 m/s 714 mm Hg 63%
04:00 +21°C° 0 mm 1 m/s 714 mm Hg 63%
05:00 +21°C° 0 mm 1 m/s 715 mm Hg 64%
06:00 +21°C° 0 mm 1 m/s 715 mm Hg 65%
07:00 +22°C° 0 mm 1 m/s 715 mm Hg 63%
08:00 +24°C° 0 mm 1 m/s 716 mm Hg 62%
09:00 +26°C° 0 mm 1 m/s 717 mm Hg 60%
10:00 +27°C° 0 mm 1 m/s 717 mm Hg 56%
11:00 +29°C° 0 mm 1 m/s 716 mm Hg 52%
12:00 +31°C° 0 mm 1 m/s 716 mm Hg 48%
13:00 +31°C° 0 mm 1 m/s 716 mm Hg 47%
14:00 +31°C° 0 mm 1 m/s 715 mm Hg 47%
15:00 +31°C° 0 mm 1 m/s 714 mm Hg 46%
16:00 +29°C° 0 mm 1 m/s 714 mm Hg 54%
17:00 +27°C° 0 mm 1 m/s 714 mm Hg 62%
18:00 +26°C° 0 mm 1 m/s 714 mm Hg 69%
19:00 +25°C° 0 mm 1 m/s 715 mm Hg 73%
20:00 +23°C° 0 mm 1 m/s 715 mm Hg 76%
21:00 +22°C° 0 mm 1 m/s 716 mm Hg 79%
22:00 +22°C° 0 mm 1 m/s 716 mm Hg 78%
23:00 +22°C° 0 mm 1 m/s 716 mm Hg 77%
Mostrare altro

Abbiamo bisogno del tuo consenso

Meteoprog e i nostri fornitori di servizi possono memorizzare e accedere a dati personali come cookie, identificatori di dispositivi o altre tecnologie simili sul tuo dispositivo e possono elaborare tali dati per personalizzare i contenuti e gli annunci, nonché fornire funzionalità dei social media e analizzarne il traffico.

  • Archiviare e/o accedere alle informazioni sul tuo dispositivo

    Cookie, identificatori di dispositivi o altre informazioni possono essere memorizzati o resi accessibili sul tuo dispositivo per le finalità sopra indicate.

  • Annunci e contenuti personalizzati, misurazione di annunci e contenuti, approfondimenti sul pubblico e sviluppo di prodotti

    Gli annunci e i contenuti possono essere personalizzati in base a un profilo. È possibile aggiungere più dati per personalizzare meglio annunci e contenuti. È possibile misurare il rendimento degli annunci e dei contenuti. È possibile ricavare informazioni sul pubblico che ha visto gli annunci e i contenuti. Tali dati possono essere utilizzati per sviluppare o migliorare l'esperienza, i sistemi e il software dell'utente.

Cliccando su “Accetto”, acconsenti all'uso di cookie, identificatori di dispositivo, web beacon o altre tecnologie simili. Puoi modificare le impostazioni nel browser del tuo dispositivo.

Per determinati scopi, è possibile fare affidamento su interessi legali, piuttosto che sul consenso. Puoi approfondire questo argomento consultando la nostra Informativa sulla privacy e sui cookie.